Location: Rowland
(34.5359°N, 79.2929°W)
Time: 14:04:37
(UTC+00:00)

S-56A Canister/Altair - Visible Passes

Search period start: 03 October 2022 00:00
Search period end: 13 October 2022 00:00
Orbit: 637 x 2496 km, 38.9° (Epoch: 02 October)

Date Brightness Start Highest point End Pass type
(mag) Time Alt. Az. Time Alt. Az. Time Alt. Az.
03 Oct 9.6 07:29:36 41° ENE 07:29:36 41° ENE 07:33:50 10° ENE visible
03 Oct 8.5 09:27:02 30° WNW 09:31:27 65° N 09:37:29 10° E visible
04 Oct 10.3 06:58:39 26° ENE 06:58:39 26° ENE 07:01:20 10° ENE visible
04 Oct 8.7 08:56:04 47° WNW 08:58:33 65° N 09:05:03 10° E visible
05 Oct 10.8 06:27:42 15° ENE 06:27:42 15° ENE 06:28:47 10° ENE visible
05 Oct 8.8 08:25:08 65° NNW 08:25:36 66° N 08:32:37 10° E visible
05 Oct 8.1 10:22:34 11° WNW 10:30:35 85° SSW 10:36:08 10° ESE visible
06 Oct 9.1 07:54:14 57° NE 07:54:14 57° NE 08:00:07 10° E visible
06 Oct 8.3 09:51:40 21° WNW 09:57:51 88° NNE 10:03:48 10° ESE visible
07 Oct 11.3 00:56:15 10° SSE 00:57:00 11° SSE 00:57:00 11° SSE visible
07 Oct 11.5 02:53:35 10° SSW 02:54:29 12° SSW 02:54:29 12° SSW visible
07 Oct 9.8 07:23:22 38° ENE 07:23:22 38° ENE 07:27:36 10° ENE visible
07 Oct 8.4 09:20:49 35° WNW 09:25:02 82° NNE 09:31:25 10° ESE visible
08 Oct 11.3 00:26:40 10° SE 00:26:45 10° SE 00:26:45 10° SE visible
08 Oct 11.2 02:20:31 10° SSW 02:24:14 20° SSW 02:24:14 20° SSW visible
08 Oct 10.5 06:52:33 24° ENE 06:52:33 24° ENE 06:55:02 10° ENE visible
08 Oct 8.6 08:49:59 56° WNW 08:52:09 78° NNE 08:59:01 10° E visible
08 Oct 8.7 10:48:40 10° WNW 10:56:15 42° SW 11:01:33 10° SSE visible
09 Oct 10.8 01:47:36 10° SSW 01:54:01 26° S 01:54:01 26° S visible
09 Oct 11.6 03:51:25 10° SW 03:51:31 10° SW 03:51:31 10° SW visible
09 Oct 11.0 06:21:48 13° ENE 06:21:48 13° ENE 06:22:25 10° ENE visible
09 Oct 8.8 08:19:15 76° NNE 08:19:15 76° NNE 08:26:33 10° E visible
09 Oct 8.6 10:16:41 15° WNW 10:23:40 51° SW 10:29:25 10° SE visible
10 Oct 10.6 01:14:50 10° SSW 01:23:50 29° SSE 01:23:50 29° SSE visible
10 Oct 11.2 03:17:53 10° SW 03:21:19 20° SW 03:21:19 20° SW visible
10 Oct 9.3 07:48:34 53° ENE 07:48:34 53° ENE 07:54:02 10° E visible
10 Oct 8.5 09:46:00 27° W 09:51:00 60° SSW 09:57:13 10° SE visible
11 Oct 10.6 00:42:16 10° S 00:53:39 28° SE 00:53:39 28° SE visible
11 Oct 10.8 02:44:28 10° SW 02:51:08 32° SW 02:51:08 32° SW visible
11 Oct 10.1 07:17:57 31° E 07:17:57 31° E 07:21:28 10° E visible
11 Oct 8.6 09:15:24 46° W 09:18:14 68° SSW 09:24:57 10° SE visible
12 Oct 10.7 00:09:54 10° S 00:20:26 24° SE 00:23:27 23° ESE visible
12 Oct 10.3 02:11:11 10° SW 02:20:55 45° SSW 02:20:55 45° SSW visible
12 Oct 11.6 04:17:28 10° WSW 04:18:24 13° WSW 04:18:24 13° WSW visible
12 Oct 10.8 06:47:24 17° E 06:47:24 17° E 06:48:51 10° E visible
12 Oct 8.6 08:44:52 74° WSW 08:45:22 76° SSW 08:52:38 10° ESE visible
12 Oct 9.6 10:42:24 10° W 10:48:36 22° SW 10:53:21 10° S visible
